Time,TemperatureF,DewpointF,PressureIn,WindDirection,WindDirectionDegrees,WindSpeedMPH,WindSpeedGustMPH,Humidity,HourlyPrecipIn,Conditions,Clouds,dailyrainin,SoftwareType,DateUTC
2013-08-01 00:04:00,52.9,46.9,30.18,SW,227,0.0,0.0,80,0.00,CLR,,0.02,WeatherDisplay:10.37,2013-07-31 14:04:00,
2013-08-01 00:09:00,52.7,46.7,30.18,SW,236,0.0,0.0,80,0.00,CLR,,0.02,WeatherDisplay:10.37,2013-07-31 14:09:00,
2013-08-01 00:19:00,52.5,46.5,30.17,North,2,0.0,0.0,80,0.00,CLR,,0.02,WeatherDisplay:10.37,2013-07-31 14:19:00,
2013-08-01 00:24:00,52.4,46.4,30.17,NNW,332,0.0,0.0,80,0.00,CLR,,0.02,WeatherDisplay:10.37,2013-07-31 14:24:00,
2013-08-01 00:29:00,52.3,46.4,30.17,WNW,298,0.0,0.0,80,0.00,CLR,,0.02,WeatherDisplay:10.37,2013-07-31 14:29:00,
2013-08-01 00:34:00,52.3,46.4,30.17,NW,306,0.0,0.0,80,0.00,CLR,,0.02,WeatherDisplay:10.37,2013-07-31 14:34:00,
2013-08-01 00:44:00,52.2,46.2,30.17,WNW,292,0.0,0.0,80,0.00,CLR,,0.02,WeatherDisplay:10.37,2013-07-31 14:44:00,
2013-08-01 00:49:00,52.2,46.2,30.17,WNW,298,0.0,0.0,80,0.00,CLR,,0.02,WeatherDisplay:10.37,2013-07-31 14:49:00,
2013-08-01 00:54:00,52.2,46.2,30.17,NNW,327,0.0,1.0,80,0.00,CLR,,0.02,WeatherDisplay:10.37,2013-07-31 14:54:00,
2013-08-01 00:59:00,51.9,45.9,30.17,North,8,1.0,2.0,80,0.00,CLR,,0.02,WeatherDisplay:10.37,2013-07-31 14:59:00,
2013-08-01 01:04:00,51.6,45.7,30.17,North,11,1.0,1.0,80,0.00,CLR,,0.02,WeatherDisplay:10.37,2013-07-31 15:04:00,
2013-08-01 01:09:00,51.6,46.0,30.17,NE,40,0.0,1.0,81,0.00,CLR,,0.02,WeatherDisplay:10.37,2013-07-31 15:09:00,
2013-08-01 01:14:00,51.6,45.6,30.17,NNE,33,0.0,2.0,80,0.00,CLR,,0.02,WeatherDisplay:10.37,2013-07-31 15:14:00,
2013-08-01 01:19:00,51.4,45.8,30.17,NNW,343,0.0,2.0,81,0.00,CLR,,0.02,WeatherDisplay:10.37,2013-07-31 15:19:00,
2013-08-01 01:24:00,51.2,45.2,30.17,North,9,0.0,7.0,80,0.00,CLR,,0.02,WeatherDisplay:10.37,2013-07-31 15:24:00,
2013-08-01 01:29:00,50.9,44.9,30.17,NNE,22,0.0,0.0,80,0.00,CLR,,0.02,WeatherDisplay:10.37,2013-07-31 15:29:00,
2013-08-01 01:34:00,50.7,44.8,30.17,NNE,24,0.0,1.0,80,0.00,CLR,,0.02,WeatherDisplay:10.37,2013-07-31 15:34:00,
2013-08-01 01:39:00,50.7,44.8,30.17,WNW,284,0.0,1.0,80,0.00,CLR,,0.02,WeatherDisplay:10.37,2013-07-31 15:39:00,
2013-08-01 01:44:00,50.7,44.8,30.17,NW,316,0.0,0.0,80,0.00,CLR,,0.02,WeatherDisplay:10.37,2013-07-31 15:44:00,
2013-08-01 01:49:00,50.5,44.6,30.16,North,351,0.0,1.0,80,0.00,CLR,,0.02,WeatherDisplay:10.37,2013-07-31 15:49:00,
2013-08-01 01:54:00,50.2,44.2,30.16,WSW,249,0.0,0.0,80,0.00,CLR,,0.02,WeatherDisplay:10.37,2013-07-31 15:54:00,
2013-08-01 01:59:00,50.2,44.6,30.16,NW,304,0.0,1.0,81,0.00,CLR,,0.02,WeatherDisplay:10.37,2013-07-31 15:59:00,
2013-08-01 02:04:00,50.2,44.6,30.16,North,360,0.0,0.0,81,0.00,CLR,,0.02,WeatherDisplay:10.37,2013-07-31 16:04:00,
2013-08-01 02:09:00,50.2,44.6,30.16,North,351,0.0,1.0,81,0.00,CLR,,0.02,WeatherDisplay:10.37,2013-07-31 16:09:00,
2013-08-01 02:14:00,50.4,44.8,30.16,West,268,0.0,0.0,81,0.00,CLR,,0.02,WeatherDisplay:10.37,2013-07-31 16:14:00,
2013-08-01 02:19:00,50.2,44.6,30.16,West,266,0.0,0.0,81,0.00,CLR,,0.02,WeatherDisplay:10.37,2013-07-31 16:19:00,
2013-08-01 02:24:00,50.3,44.7,30.15,West,266,0.0,5.0,81,0.00,CLR,,0.02,WeatherDisplay:10.37,2013-07-31 16:24:00,
2013-08-01 02:29:00,50.4,45.1,30.15,WSW,242,0.0,1.0,82,0.00,CLR,,0.02,WeatherDisplay:10.37,2013-07-31 16:29:00,
2013-08-01 02:34:00,50.4,45.1,30.15,SW,229,0.0,0.0,82,0.00,CLR,,0.02,WeatherDisplay:10.37,2013-07-31 16:34:00,
2013-08-01 02:39:00,50.4,45.1,30.15,SW,227,0.0,2.0,82,0.00,CLR,,0.02,WeatherDisplay:10.37,2013-07-31 16:39:00,
2013-08-01 02:44:00,50.4,45.1,30.15,SW,220,0.0,2.0,82,0.00,CLR,,0.02,WeatherDisplay:10.37,2013-07-31 16:44:00,
2013-08-01 02:49:00,50.4,45.1,30.15,South,185,0.0,1.0,82,0.00,CLR,,0.02,WeatherDisplay:10.37,2013-07-31 16:49:00,
2013-08-01 02:54:00,50.2,45.0,30.14,NE,48,0.0,0.0,82,0.00,CLR,,0.02,WeatherDisplay:10.37,2013-07-31 16:54:00,
2013-08-01 02:59:00,50.4,45.1,30.14,NE,45,0.0,0.0,82,0.00,CLR,,0.02,WeatherDisplay:10.37,2013-07-31 16:59:00,
2013-08-01 03:04:00,50.4,45.1,30.14,East,83,0.0,0.0,82,0.00,CLR,,0.02,WeatherDisplay:10.37,2013-07-31 17:04:00,
2013-08-01 03:09:00,50.4,45.1,30.14,SSE,159,0.0,1.0,82,0.00,CLR,,0.02,WeatherDisplay:10.37,2013-07-31 17:09:00,
2013-08-01 03:14:00,50.4,45.1,30.14,ENE,59,0.0,0.0,82,0.00,CLR,,0.02,WeatherDisplay:10.37,2013-07-31 17:14:00,
2013-08-01 03:19:00,50.2,44.9,30.14,SSE,168,2.0,4.0,82,0.00,CLR,,0.02,WeatherDisplay:10.37,2013-07-31 17:19:00,
2013-08-01 03:24:00,50.5,45.2,30.14,SSW,208,0.0,3.0,82,0.00,CLR,,0.02,WeatherDisplay:10.37,2013-07-31 17:24:00,
2013-08-01 03:29:00,50.4,45.1,30.14,SW,218,0.0,2.0,82,0.00,CLR,,0.02,WeatherDisplay:10.37,2013-07-31 17:29:00,
2013-08-01 03:34:00,50.2,44.9,30.14,SSW,202,1.0,2.0,82,0.00,CLR,,0.02,WeatherDisplay:10.37,2013-07-31 17:34:00,
2013-08-01 03:39:00,50.4,45.1,30.14,SSW,203,1.0,2.0,82,0.00,CLR,,0.02,WeatherDisplay:10.37,2013-07-31 17:39:00,
2013-08-01 03:44:00,50.5,45.2,30.13,SSW,204,0.0,2.0,82,0.00,CLR,,0.02,WeatherDisplay:10.37,2013-07-31 17:44:00,
2013-08-01 03:49:00,50.5,45.2,30.14,SW,214,0.0,1.0,82,0.00,CLR,,0.02,WeatherDisplay:10.37,2013-07-31 17:49:00,
2013-08-01 03:54:00,50.5,45.6,30.14,SW,235,0.0,2.0,83,0.00,CLR,,0.02,WeatherDisplay:10.37,2013-07-31 17:54:00,
2013-08-01 03:59:00,50.5,45.6,30.14,SW,231,0.0,1.0,83,0.00,CLR,,0.02,WeatherDisplay:10.37,2013-07-31 17:59:00,
2013-08-01 04:04:00,50.5,45.6,30.14,SW,234,0.0,0.0,83,0.00,CLR,,0.02,WeatherDisplay:10.37,2013-07-31 18:04:00,
2013-08-01 04:09:00,50.5,45.6,30.14,West,262,0.0,1.0,83,0.00,CLR,,0.02,WeatherDisplay:10.37,2013-07-31 18:09:00,
2013-08-01 04:14:00,50.4,45.4,30.14,NE,51,0.0,0.0,83,0.00,CLR,,0.02,WeatherDisplay:10.37,2013-07-31 18:14:00,
2013-08-01 04:19:00,50.5,45.5,30.14,ENE,63,0.0,1.0,83,0.00,CLR,,0.02,WeatherDisplay:10.37,2013-07-31 18:19:00,
2013-08-01 04:24:00,50.3,45.4,30.14,ENE,73,0.0,2.0,83,0.00,CLR,,0.02,WeatherDisplay:10.37,2013-07-31 18:24:00,
2013-08-01 04:29:00,50.4,45.4,30.14,SSW,210,0.0,0.0,83,0.00,CLR,,0.02,WeatherDisplay:10.37,2013-07-31 18:29:00,
2013-08-01 04:34:00,50.4,45.4,30.14,South,191,0.0,1.0,83,0.00,CLR,,0.02,WeatherDisplay:10.37,2013-07-31 18:34:00,
2013-08-01 04:39:00,50.2,45.2,30.14,NNE,32,0.0,1.0,83,0.00,CLR,,0.02,WeatherDisplay:10.37,2013-07-31 18:39:00,
2013-08-01 04:44:00,50.4,45.4,30.14,NW,312,0.0,0.0,83,0.00,CLR,,0.02,WeatherDisplay:10.37,2013-07-31 18:44:00,
2013-08-01 04:49:00,50.2,44.9,30.14,WNW,293,0.0,0.0,82,0.00,CLR,,0.02,WeatherDisplay:10.37,2013-07-31 18:49:00,
2013-08-01 04:54:00,49.8,44.9,30.14,WNW,292,0.0,0.0,83,0.00,CLR,,0.02,WeatherDisplay:10.37,2013-07-31 18:54:00,
2013-08-01 04:59:00,49.8,44.9,30.14,WNW,296,0.0,0.0,83,0.00,CLR,,0.02,WeatherDisplay:10.37,2013-07-31 18:59:00,
2013-08-01 05:09:00,49.7,44.7,30.14,NNW,339,0.0,1.0,83,0.00,CLR,,0.02,WeatherDisplay:10.37,2013-07-31 19:09:00,
2013-08-01 05:14:00,49.6,44.7,30.14,NNW,345,0.0,1.0,83,0.00,CLR,,0.02,WeatherDisplay:10.37,2013-07-31 19:14:00,
2013-08-01 05:19:00,49.6,44.7,30.14,NW,326,0.0,0.0,83,0.00,CLR,,0.02,WeatherDisplay:10.37,2013-07-31 19:19:00,
2013-08-01 05:24:00,49.6,44.7,30.14,NW,317,0.0,1.0,83,0.00,CLR,,0.02,WeatherDisplay:10.37,2013-07-31 19:24:00,
2013-08-01 05:29:00,49.6,44.7,30.14,NNW,334,0.0,1.0,83,0.00,CLR,,0.02,WeatherDisplay:10.37,2013-07-31 19:29:00,
2013-08-01 05:34:00,49.3,44.3,30.14,North,3,0.0,1.0,83,0.00,CLR,,0.02,WeatherDisplay:10.37,2013-07-31 19:34:00,
2013-08-01 05:39:00,49.3,44.3,30.14,North,351,0.0,2.0,83,0.00,CLR,,0.02,WeatherDisplay:10.37,2013-07-31 19:39:00,
2013-08-01 05:44:00,49.3,44.3,30.15,North,5,1.0,2.0,83,0.00,CLR,,0.02,WeatherDisplay:10.37,2013-07-31 19:44:00,
2013-08-01 05:49:00,49.3,44.3,30.15,NNE,18,0.0,2.0,83,0.00,CLR,,0.02,WeatherDisplay:10.37,2013-07-31 19:49:00,
2013-08-01 05:54:00,49.1,44.2,30.15,NW,314,0.0,1.0,83,0.00,CLR,,0.02,WeatherDisplay:10.37,2013-07-31 19:54:00,
2013-08-01 05:59:00,48.9,44.0,30.15,SW,218,0.0,1.0,83,0.00,CLR,,0.02,WeatherDisplay:10.37,2013-07-31 19:59:00,
2013-08-01 06:04:00,48.7,43.8,30.15,NE,44,0.0,0.0,83,0.00,CLR,,0.02,WeatherDisplay:10.37,2013-07-31 20:04:00,
2013-08-01 06:09:00,48.7,43.8,30.15,NE,54,0.0,0.0,83,0.00,CLR,,0.02,WeatherDisplay:10.37,2013-07-31 20:09:00,
2013-08-01 06:14:00,48.7,43.8,30.15,ENE,61,0.0,0.0,83,0.00,CLR,,0.02,WeatherDisplay:10.37,2013-07-31 20:14:00,
2013-08-01 06:19:00,48.7,43.8,30.15,NE,35,1.0,2.0,83,0.00,CLR,,0.02,WeatherDisplay:10.37,2013-07-31 20:19:00,
2013-08-01 06:24:00,48.7,43.8,30.15,North,355,0.0,7.0,83,0.00,CLR,,0.02,WeatherDisplay:10.37,2013-07-31 20:24:00,
2013-08-01 06:29:00,48.7,43.8,30.15,NNW,335,0.0,1.0,83,0.00,CLR,,0.02,WeatherDisplay:10.37,2013-07-31 20:29:00,
2013-08-01 06:34:00,48.7,43.8,30.16,NW,322,0.0,0.0,83,0.00,CLR,,0.02,WeatherDisplay:10.37,2013-07-31 20:34:00,
2013-08-01 06:39:00,48.7,43.8,30.16,NNW,335,0.0,0.0,83,0.00,CLR,,0.02,WeatherDisplay:10.37,2013-07-31 20:39:00,
2013-08-01 06:44:00,48.7,43.8,30.16,North,354,0.0,1.0,83,0.00,CLR,,0.02,WeatherDisplay:10.37,2013-07-31 20:44:00,
2013-08-01 06:49:00,48.7,43.8,30.16,North,4,1.0,2.0,83,0.00,CLR,,0.02,WeatherDisplay:10.37,2013-07-31 20:49:00,
2013-08-01 06:54:00,48.7,43.8,30.17,North,0,0.0,1.0,83,0.00,CLR,,0.02,WeatherDisplay:10.37,2013-07-31 20:54:00,
2013-08-01 06:59:00,48.7,43.8,30.17,North,354,1.0,1.0,83,0.00,CLR,,0.02,WeatherDisplay:10.37,2013-07-31 20:59:00,
2013-08-01 07:04:00,48.8,43.8,30.17,NNW,330,0.0,1.0,83,0.00,CLR,,0.02,WeatherDisplay:10.37,2013-07-31 21:04:00,
2013-08-01 07:09:00,48.9,44.3,30.17,North,1,0.0,0.0,84,0.00,CLR,,0.02,WeatherDisplay:10.37,2013-07-31 21:09:00,
2013-08-01 07:14:00,48.9,44.0,30.17,NNE,24,0.0,0.0,83,0.00,CLR,,0.02,WeatherDisplay:10.37,2013-07-31 21:14:00,
2013-08-01 07:19:00,48.8,44.2,30.17,North,355,0.0,0.0,84,0.00,CLR,,0.02,WeatherDisplay:10.37,2013-07-31 21:19:00,
2013-08-01 07:24:00,49.1,44.5,30.17,West,271,0.0,0.0,84,0.00,CLR,,0.02,WeatherDisplay:10.37,2013-07-31 21:24:00,
2013-08-01 07:29:00,48.9,44.3,30.18,SSW,213,0.0,0.0,84,0.00,CLR,,0.02,WeatherDisplay:10.37,2013-07-31 21:29:00,
2013-08-01 07:34:00,48.9,44.3,30.17,WSW,241,0.0,0.0,84,0.00,CLR,,0.02,WeatherDisplay:10.37,2013-07-31 21:34:00,
2013-08-01 07:44:00,49.3,44.6,30.18,WNW,291,0.0,1.0,84,0.00,CLR,,0.02,WeatherDisplay:10.37,2013-07-31 21:44:00,
2013-08-01 07:49:00,49.6,45.0,30.18,WNW,300,1.0,1.0,84,0.00,CLR,,0.02,WeatherDisplay:10.37,2013-07-31 21:49:00,
2013-08-01 07:54:00,49.8,45.2,30.18,NW,314,1.0,1.0,84,0.00,CLR,,0.02,WeatherDisplay:10.37,2013-07-31 21:54:00,
2013-08-01 07:59:00,49.8,45.2,30.18,NW,320,1.0,1.0,84,0.00,CLR,,0.02,WeatherDisplay:10.37,2013-07-31 21:59:00,
2013-08-01 08:04:00,50.2,45.5,30.18,NW,323,1.0,1.0,84,0.00,CLR,,0.02,WeatherDisplay:10.37,2013-07-31 22:04:00,
2013-08-01 08:09:00,50.3,45.6,30.18,NW,317,0.0,2.0,84,0.00,CLR,,0.02,WeatherDisplay:10.37,2013-07-31 22:09:00,
2013-08-01 08:14:00,50.5,45.8,30.18,NW,308,1.0,2.0,84,0.00,CLR,,0.02,WeatherDisplay:10.37,2013-07-31 22:14:00,
2013-08-01 08:19:00,50.7,46.0,30.18,NW,315,1.0,1.0,84,0.00,CLR,,0.02,WeatherDisplay:10.37,2013-07-31 22:19:00,
2013-08-01 08:24:00,50.9,46.2,30.18,NW,324,0.0,1.0,84,0.00,CLR,,0.02,WeatherDisplay:10.37,2013-07-31 22:24:00,
2013-08-01 08:29:00,51.1,46.4,30.18,NW,319,0.0,2.0,84,0.00,CLR,,0.02,WeatherDisplay:10.37,2013-07-31 22:29:00,
2013-08-01 08:34:00,51.5,47.2,30.18,NW,312,1.0,2.0,85,0.00,CLR,,0.02,WeatherDisplay:10.37,2013-07-31 22:34:00,
2013-08-01 08:39:00,51.8,47.1,30.18,NW,311,1.0,2.0,84,0.00,CLR,,0.02,WeatherDisplay:10.37,2013-07-31 22:39:00,
2013-08-01 08:44:00,52.2,47.5,30.18,NW,322,1.0,2.0,84,0.00,CLR,,0.02,WeatherDisplay:10.37,2013-07-31 22:44:00,
2013-08-01 08:49:00,52.6,47.9,30.18,NNW,331,1.0,1.0,84,0.00,CLR,,0.02,WeatherDisplay:10.37,2013-07-31 22:49:00,
2013-08-01 08:54:00,52.9,48.2,30.18,NNW,347,1.0,2.0,84,0.00,CLR,,0.02,WeatherDisplay:10.37,2013-07-31 22:54:00,
2013-08-01 08:59:00,53.2,48.5,30.18,North,3,0.0,2.0,84,0.00,RA,,0.00,WeatherDisplay:10.37,2013-07-31 22:59:00,
2013-08-01 09:04:00,53.5,48.7,30.18,SW,220,2.0,3.0,84,0.00,RA,,0.00,WeatherDisplay:10.37,2013-07-31 23:04:00,
2013-08-01 09:09:00,54.0,48.9,30.18,SSW,210,2.0,7.0,83,0.00,CLR,,0.00,WeatherDisplay:10.37,2013-07-31 23:09:00,
2013-08-01 09:14:00,54.3,49.3,30.18,SSW,209,5.0,7.0,83,0.00,CLR,,0.00,WeatherDisplay:10.37,2013-07-31 23:14:00,
2013-08-01 09:19:00,54.9,49.5,30.18,SSW,209,3.0,6.0,82,0.00,CLR,,0.00,WeatherDisplay:10.37,2013-07-31 23:19:00,
2013-08-01 09:24:00,55.2,49.5,30.18,SW,215,5.0,8.0,81,0.00,CLR,,0.00,WeatherDisplay:10.37,2013-07-31 23:24:00,
2013-08-01 09:29:00,55.6,49.8,30.18,SW,218,3.0,8.0,81,0.00,CLR,,0.00,WeatherDisplay:10.37,2013-07-31 23:29:00,
2013-08-01 09:34:00,55.8,49.7,30.18,SW,214,2.0,6.0,80,0.00,CLR,,0.00,WeatherDisplay:10.37,2013-07-31 23:34:00,
2013-08-01 09:39:00,56.0,49.9,30.18,SSW,209,5.0,8.0,80,0.00,CLR,,0.00,WeatherDisplay:10.37,2013-07-31 23:39:00,
2013-08-01 09:44:00,56.1,50.0,30.18,SW,216,5.0,10.0,80,0.00,CLR,,0.00,WeatherDisplay:10.37,2013-07-31 23:44:00,
2013-08-01 09:49:00,56.4,50.0,30.18,SW,219,5.0,7.0,79,0.00,CLR,,0.00,WeatherDisplay:10.37,2013-07-31 23:49:00,
2013-08-01 09:54:00,56.8,50.4,30.18,SSW,204,5.0,8.0,79,0.00,CLR,,0.00,WeatherDisplay:10.37,2013-07-31 23:54:00,
2013-08-01 09:59:00,57.0,50.2,30.18,SSW,199,3.0,8.0,78,0.00,CLR,,0.00,WeatherDisplay:10.37,2013-07-31 23:59:00,
2013-08-01 10:04:00,57.2,50.4,30.18,SSW,207,6.0,9.0,78,0.00,CLR,,0.00,WeatherDisplay:10.37,2013-08-01 00:04:00,
2013-08-01 10:09:00,57.6,50.4,30.18,SSW,207,2.0,9.0,77,0.00,CLR,,0.00,WeatherDisplay:10.37,2013-08-01 00:09:00,
2013-08-01 10:14:00,57.7,50.6,30.18,South,178,5.0,6.0,77,0.00,CLR,,0.00,WeatherDisplay:10.37,2013-08-01 00:14:00,
2013-08-01 10:19:00,57.9,50.4,30.18,South,185,5.0,7.0,76,0.00,CLR,,0.00,WeatherDisplay:10.37,2013-08-01 00:19:00,
2013-08-01 10:24:00,58.0,50.2,30.18,SSW,205,3.0,7.0,75,0.00,CLR,,0.00,WeatherDisplay:10.37,2013-08-01 00:24:00,
2013-08-01 10:29:00,58.3,50.4,30.17,SSW,198,8.0,11.0,75,0.00,CLR,,0.00,WeatherDisplay:10.37,2013-08-01 00:29:00,
2013-08-01 10:34:00,58.6,50.4,30.17,SSW,199,3.0,9.0,74,0.00,CLR,,0.00,WeatherDisplay:10.37,2013-08-01 00:34:00,
2013-08-01 10:39:00,58.6,50.4,30.17,South,186,2.0,5.0,74,0.00,CLR,,0.00,WeatherDisplay:10.37,2013-08-01 00:39:00,
2013-08-01 10:44:00,58.6,50.4,30.17,South,180,5.0,9.0,74,0.00,CLR,,0.00,WeatherDisplay:10.37,2013-08-01 00:44:00,
2013-08-01 10:49:00,59.0,50.3,30.17,SW,228,7.0,10.0,73,0.00,CLR,,0.00,WeatherDisplay:10.37,2013-08-01 00:49:00,
2013-08-01 10:54:00,59.1,50.4,30.17,WSW,243,1.0,8.0,73,0.00,CLR,,0.00,WeatherDisplay:10.37,2013-08-01 00:54:00,
2013-08-01 10:59:00,59.1,50.4,30.17,WSW,250,3.0,6.0,73,0.00,CLR,,0.00,WeatherDisplay:10.37,2013-08-01 00:59:00,
2013-08-01 11:04:00,59.2,50.2,30.17,NW,315,5.0,7.0,72,0.00,CLR,,0.00,WeatherDisplay:10.37,2013-08-01 01:04:00,
2013-08-01 11:09:00,59.4,50.3,30.17,NW,315,3.0,8.0,72,0.00,CLR,,0.00,WeatherDisplay:10.37,2013-08-01 01:09:00,
2013-08-01 11:14:00,59.7,50.7,30.17,NW,325,5.0,7.0,72,0.00,CLR,,0.00,WeatherDisplay:10.37,2013-08-01 01:14:00,
2013-08-01 11:19:00,59.9,50.5,30.16,NW,316,6.0,9.0,71,0.00,CLR,,0.00,WeatherDisplay:10.37,2013-08-01 01:19:00,
2013-08-01 11:24:00,60.0,50.5,30.16,West,280,5.0,8.0,71,0.00,CLR,,0.00,WeatherDisplay:10.37,2013-08-01 01:24:00,
2013-08-01 11:29:00,60.1,50.6,30.16,SSW,201,5.0,9.0,71,0.00,CLR,,0.00,WeatherDisplay:10.37,2013-08-01 01:29:00,
2013-08-01 11:34:00,60.1,50.6,30.16,SSE,168,7.0,13.0,71,0.00,CLR,,0.00,WeatherDisplay:10.37,2013-08-01 01:34:00,
2013-08-01 11:39:00,60.3,50.4,30.16,South,186,3.0,11.0,70,0.00,CLR,,0.00,WeatherDisplay:10.37,2013-08-01 01:39:00,
2013-08-01 11:44:00,59.9,50.1,30.15,South,187,5.0,7.0,70,0.00,CLR,,0.00,WeatherDisplay:10.37,2013-08-01 01:44:00,
2013-08-01 11:49:00,59.7,49.9,30.15,WSW,238,3.0,7.0,70,0.00,CLR,,0.00,WeatherDisplay:10.37,2013-08-01 01:49:00,
2013-08-01 11:54:00,59.5,49.7,30.15,WSW,243,2.0,6.0,70,0.00,CLR,,0.00,WeatherDisplay:10.37,2013-08-01 01:54:00,
2013-08-01 11:59:00,59.8,50.0,30.15,SW,227,3.0,6.0,70,0.00,CLR,,0.00,WeatherDisplay:10.37,2013-08-01 01:59:00,
2013-08-01 12:04:00,60.1,50.3,30.14,SSE,166,3.0,6.0,70,0.00,CLR,,0.00,WeatherDisplay:10.37,2013-08-01 02:04:00,
2013-08-01 12:09:00,60.6,50.7,30.14,South,169,6.0,12.0,70,0.00,CLR,,0.00,WeatherDisplay:10.37,2013-08-01 02:09:00,
2013-08-01 12:14:00,60.6,50.4,30.14,South,180,3.0,11.0,69,0.00,CLR,,0.00,WeatherDisplay:10.37,2013-08-01 02:14:00,
2013-08-01 12:19:00,60.6,50.3,30.14,West,269,2.0,7.0,69,0.00,CLR,,0.00,WeatherDisplay:10.37,2013-08-01 02:19:00,
2013-08-01 12:24:00,60.2,50.0,30.14,SSW,202,3.0,6.0,69,0.00,CLR,,0.00,WeatherDisplay:10.37,2013-08-01 02:24:00,
2013-08-01 12:29:00,59.9,50.1,30.13,WSW,256,3.0,6.0,70,0.00,CLR,,0.00,WeatherDisplay:10.37,2013-08-01 02:29:00,
2013-08-01 12:34:00,60.1,50.3,30.13,South,186,3.0,7.0,70,0.00,CLR,,0.00,WeatherDisplay:10.37,2013-08-01 02:34:00,
2013-08-01 12:39:00,60.4,50.6,30.13,SSE,152,5.0,9.0,70,0.00,CLR,,0.00,WeatherDisplay:10.37,2013-08-01 02:39:00,
2013-08-01 12:44:00,60.9,50.2,30.12,SSE,148,5.0,9.0,68,0.00,CLR,,0.00,WeatherDisplay:10.37,2013-08-01 02:44:00,
2013-08-01 12:49:00,61.0,50.3,30.12,SSE,158,3.0,8.0,68,0.00,CLR,,0.00,WeatherDisplay:10.37,2013-08-01 02:49:00,
2013-08-01 12:54:00,60.6,49.6,30.12,South,173,2.0,5.0,67,0.00,CLR,,0.00,WeatherDisplay:10.37,2013-08-01 02:54:00,
2013-08-01 12:59:00,60.6,50.0,30.11,SE,129,3.0,5.0,68,0.00,CLR,,0.00,WeatherDisplay:10.37,2013-08-01 02:59:00,
2013-08-01 13:04:00,60.4,49.8,30.11,SE,129,3.0,5.0,68,0.00,CLR,,0.00,WeatherDisplay:10.37,2013-08-01 03:04:00,
2013-08-01 13:09:00,60.5,49.5,30.11,SE,139,5.0,6.0,67,0.00,CLR,,0.00,WeatherDisplay:10.37,2013-08-01 03:09:00,
2013-08-01 13:14:00,60.6,49.6,30.11,SSE,168,5.0,7.0,67,0.00,CLR,,0.00,WeatherDisplay:10.37,2013-08-01 03:14:00,
2013-08-01 13:19:00,61.0,49.9,30.11,South,187,3.0,9.0,67,0.00,CLR,,0.00,WeatherDisplay:10.37,2013-08-01 03:19:00,
2013-08-01 13:24:00,61.0,49.9,30.11,SSW,198,3.0,5.0,67,0.00,CLR,,0.00,WeatherDisplay:10.37,2013-08-01 03:24:00,
2013-08-01 13:29:00,61.0,49.5,30.11,South,171,6.0,7.0,66,0.00,CLR,,0.00,WeatherDisplay:10.37,2013-08-01 03:29:00,
2013-08-01 13:34:00,60.9,49.5,30.11,SSW,197,3.0,7.0,66,0.00,CLR,,0.00,WeatherDisplay:10.37,2013-08-01 03:34:00,
2013-08-01 13:39:00,60.7,49.7,30.10,SW,226,2.0,5.0,67,0.00,CLR,,0.00,WeatherDisplay:10.37,2013-08-01 03:39:00,
2013-08-01 13:44:00,60.8,49.7,30.10,WSW,240,2.0,5.0,67,0.00,CLR,,0.00,WeatherDisplay:10.37,2013-08-01 03:44:00,
2013-08-01 13:49:00,60.7,49.7,30.10,SSW,207,2.0,3.0,67,0.00,CLR,,0.00,WeatherDisplay:10.37,2013-08-01 03:49:00,
2013-08-01 13:54:00,61.0,49.5,30.10,SSW,192,5.0,7.0,66,0.00,CLR,,0.00,WeatherDisplay:10.37,2013-08-01 03:54:00,
2013-08-01 13:59:00,61.2,49.7,30.10,South,191,5.0,8.0,66,0.00,CLR,,0.00,WeatherDisplay:10.37,2013-08-01 03:59:00,
2013-08-01 14:04:00,61.5,49.6,30.10,SSW,196,6.0,10.0,65,0.00,CLR,,0.00,WeatherDisplay:10.37,2013-08-01 04:04:00,
2013-08-01 14:09:00,61.5,49.2,30.10,SSW,206,3.0,8.0,64,0.00,CLR,,0.00,WeatherDisplay:10.37,2013-08-01 04:09:00,
2013-08-01 14:14:00,61.5,48.8,30.09,South,189,5.0,8.0,63,0.00,CLR,,0.00,WeatherDisplay:10.37,2013-08-01 04:14:00,
2013-08-01 14:19:00,61.5,49.2,30.09,South,176,2.0,6.0,64,0.00,CLR,,0.00,WeatherDisplay:10.37,2013-08-01 04:19:00,
2013-08-01 14:24:00,61.5,49.2,30.09,SSE,160,3.0,6.0,64,0.00,CLR,,0.00,WeatherDisplay:10.37,2013-08-01 04:24:00,
2013-08-01 14:29:00,61.5,49.6,30.09,South,171,2.0,6.0,65,0.00,CLR,,0.00,WeatherDisplay:10.37,2013-08-01 04:29:00,
2013-08-01 14:34:00,61.3,49.9,30.10,SSW,193,2.0,6.0,66,0.00,CLR,,0.00,WeatherDisplay:10.37,2013-08-01 04:34:00,
2013-08-01 14:39:00,61.2,50.1,30.09,SW,234,3.0,5.0,67,0.00,CLR,,0.00,WeatherDisplay:10.37,2013-08-01 04:39:00,
2013-08-01 14:44:00,61.3,50.7,30.09,WSW,243,5.0,9.0,68,0.00,CLR,,0.00,WeatherDisplay:10.37,2013-08-01 04:44:00,
2013-08-01 14:49:00,61.5,50.9,30.09,SSW,212,3.0,12.0,68,0.00,CLR,,0.00,WeatherDisplay:10.37,2013-08-01 04:49:00,
2013-08-01 14:54:00,61.9,51.2,30.09,SSW,199,5.0,9.0,68,0.00,CLR,,0.00,WeatherDisplay:10.37,2013-08-01 04:54:00,
2013-08-01 14:59:00,62.2,51.5,30.09,SSW,193,6.0,10.0,68,0.00,CLR,,0.00,WeatherDisplay:10.37,2013-08-01 04:59:00,
2013-08-01 15:04:00,62.3,51.2,30.09,SSW,200,8.0,10.0,67,0.00,CLR,,0.00,WeatherDisplay:10.37,2013-08-01 05:04:00,
2013-08-01 15:09:00,62.4,51.3,30.10,SW,223,5.0,9.0,67,0.00,CLR,,0.00,WeatherDisplay:10.37,2013-08-01 05:09:00,
2013-08-01 15:14:00,62.2,50.7,30.10,SSW,194,6.0,12.0,66,0.00,CLR,,0.00,WeatherDisplay:10.37,2013-08-01 05:14:00,
2013-08-01 15:19:00,61.9,50.8,30.10,South,177,3.0,8.0,67,0.00,CLR,,0.00,WeatherDisplay:10.37,2013-08-01 05:19:00,
2013-08-01 15:24:00,61.5,50.5,30.09,South,186,3.0,6.0,67,0.00,CLR,,0.00,WeatherDisplay:10.37,2013-08-01 05:24:00,
2013-08-01 15:29:00,61.3,50.3,30.10,South,178,2.0,6.0,67,0.00,CLR,,0.00,WeatherDisplay:10.37,2013-08-01 05:29:00,
2013-08-01 15:34:00,61.3,50.7,30.09,SSW,209,2.0,5.0,68,0.00,CLR,,0.00,WeatherDisplay:10.37,2013-08-01 05:34:00,
2013-08-01 15:39:00,61.3,50.7,30.09,West,265,3.0,5.0,68,0.00,CLR,,0.00,WeatherDisplay:10.37,2013-08-01 05:39:00,
2013-08-01 15:44:00,61.3,50.7,30.10,WNW,297,2.0,5.0,68,0.00,CLR,,0.00,WeatherDisplay:10.37,2013-08-01 05:44:00,
2013-08-01 15:49:00,61.4,50.8,30.10,WNW,291,3.0,8.0,68,0.00,CLR,,0.00,WeatherDisplay:10.37,2013-08-01 05:49:00,
2013-08-01 15:54:00,61.3,51.1,30.10,WNW,299,7.0,9.0,69,0.00,CLR,,0.00,WeatherDisplay:10.37,2013-08-01 05:54:00,
2013-08-01 15:59:00,61.3,51.1,30.10,NW,314,5.0,8.0,69,0.00,CLR,,0.00,WeatherDisplay:10.37,2013-08-01 05:59:00,
2013-08-01 16:04:00,61.3,51.1,30.10,NW,305,3.0,6.0,69,0.00,CLR,,0.00,WeatherDisplay:10.37,2013-08-01 06:04:00,
2013-08-01 16:09:00,61.1,50.8,30.10,WSW,238,7.0,8.0,69,0.00,CLR,,0.00,WeatherDisplay:10.37,2013-08-01 06:09:00,
2013-08-01 16:14:00,61.0,50.7,30.10,West,280,6.0,8.0,69,0.00,CLR,,0.00,WeatherDisplay:10.37,2013-08-01 06:14:00,
2013-08-01 16:19:00,61.0,50.7,30.10,South,179,3.0,6.0,69,0.00,CLR,,0.00,WeatherDisplay:10.37,2013-08-01 06:19:00,
2013-08-01 16:24:00,60.6,50.8,30.10,SSE,154,3.0,6.0,70,0.00,CLR,,0.00,WeatherDisplay:10.37,2013-08-01 06:24:00,
2013-08-01 16:29:00,60.6,50.8,30.10,SE,143,3.0,6.0,70,0.00,CLR,,0.00,WeatherDisplay:10.37,2013-08-01 06:29:00,
2013-08-01 16:34:00,60.4,50.6,30.10,SE,139,2.0,5.0,70,0.00,CLR,,0.00,WeatherDisplay:10.37,2013-08-01 06:34:00,
2013-08-01 16:44:00,60.1,50.6,30.11,SSE,154,1.0,4.0,71,0.00,CLR,,0.00,WeatherDisplay:10.37,2013-08-01 06:44:00,
2013-08-01 16:49:00,60.1,50.6,30.11,SSE,157,1.0,3.0,71,0.00,CLR,,0.00,WeatherDisplay:10.37,2013-08-01 06:49:00,
2013-08-01 16:54:00,59.9,50.5,30.11,SSE,160,2.0,6.0,71,0.00,CLR,,0.00,WeatherDisplay:10.37,2013-08-01 06:54:00,
2013-08-01 16:59:00,59.7,50.7,30.11,SSE,160,1.0,2.0,72,0.00,CLR,,0.00,WeatherDisplay:10.37,2013-08-01 06:59:00,
2013-08-01 17:04:00,59.7,50.7,30.10,SE,144,0.0,2.0,72,0.00,CLR,,0.00,WeatherDisplay:10.37,2013-08-01 07:04:00,
2013-08-01 17:09:00,59.5,50.9,30.10,SSE,147,0.0,3.0,73,0.00,CLR,,0.00,WeatherDisplay:10.37,2013-08-01 07:09:00,
2013-08-01 17:14:00,59.5,50.5,30.11,South,169,1.0,2.0,72,0.00,CLR,,0.00,WeatherDisplay:10.37,2013-08-01 07:14:00,
2013-08-01 17:19:00,59.4,50.7,30.11,South,177,0.0,2.0,73,0.00,CLR,,0.00,WeatherDisplay:10.37,2013-08-01 07:19:00,
2013-08-01 17:24:00,59.2,50.5,30.11,South,183,1.0,2.0,73,0.00,CLR,,0.00,WeatherDisplay:10.37,2013-08-01 07:24:00,
2013-08-01 17:29:00,59.0,50.7,30.11,South,187,1.0,2.0,74,0.00,CLR,,0.00,WeatherDisplay:10.37,2013-08-01 07:29:00,
2013-08-01 17:34:00,58.8,50.5,30.11,SSW,196,0.0,1.0,74,0.00,CLR,,0.00,WeatherDisplay:10.37,2013-08-01 07:34:00,
2013-08-01 17:39:00,58.6,50.7,30.11,SSW,202,0.0,0.0,75,0.00,CLR,,0.00,WeatherDisplay:10.37,2013-08-01 07:39:00,
2013-08-01 17:44:00,58.2,50.3,30.11,SSW,200,0.0,0.0,75,0.00,CLR,,0.00,WeatherDisplay:10.37,2013-08-01 07:44:00,
2013-08-01 17:49:00,57.9,50.4,30.12,SW,215,0.0,0.0,76,0.00,CLR,,0.00,WeatherDisplay:10.37,2013-08-01 07:49:00,
2013-08-01 17:54:00,57.7,50.2,30.12,SW,225,0.0,0.0,76,0.00,CLR,,0.00,WeatherDisplay:10.37,2013-08-01 07:54:00,
2013-08-01 17:59:00,57.7,50.2,30.12,WSW,253,0.0,1.0,76,0.00,CLR,,0.00,WeatherDisplay:10.37,2013-08-01 07:59:00,
2013-08-01 18:04:00,57.6,50.0,30.12,NW,325,0.0,1.0,76,0.00,CLR,,0.00,WeatherDisplay:10.37,2013-08-01 08:04:00,
2013-08-01 18:09:00,57.3,50.1,30.12,NNW,335,0.0,0.0,77,0.00,CLR,,0.00,WeatherDisplay:10.37,2013-08-01 08:09:00,
2013-08-01 18:14:00,57.0,49.9,30.12,NNW,332,0.0,0.0,77,0.00,CLR,,0.00,WeatherDisplay:10.37,2013-08-01 08:14:00,
2013-08-01 18:19:00,56.8,50.1,30.12,NNW,332,0.0,0.0,78,0.00,CLR,,0.00,WeatherDisplay:10.37,2013-08-01 08:19:00,
2013-08-01 18:24:00,56.8,50.1,30.12,NW,319,0.0,0.0,78,0.00,CLR,,0.00,WeatherDisplay:10.37,2013-08-01 08:24:00,
2013-08-01 18:29:00,56.8,50.1,30.12,NW,309,0.0,0.0,78,0.00,CLR,,0.00,WeatherDisplay:10.37,2013-08-01 08:29:00,
2013-08-01 18:34:00,56.5,49.7,30.12,NW,323,0.0,0.0,78,0.00,CLR,,0.00,WeatherDisplay:10.37,2013-08-01 08:34:00,
2013-08-01 18:39:00,56.4,49.7,30.13,NNW,336,0.0,0.0,78,0.00,CLR,,0.00,WeatherDisplay:10.37,2013-08-01 08:39:00,
2013-08-01 18:44:00,56.1,49.4,30.13,NNW,328,0.0,0.0,78,0.00,CLR,,0.00,WeatherDisplay:10.37,2013-08-01 08:44:00,
2013-08-01 18:49:00,56.0,49.2,30.13,NW,323,0.0,0.0,78,0.00,CLR,,0.00,WeatherDisplay:10.37,2013-08-01 08:49:00,
2013-08-01 18:59:00,55.8,49.1,30.13,NNW,334,0.0,0.0,78,0.00,CLR,,0.00,WeatherDisplay:10.37,2013-08-01 08:59:00,
2013-08-01 19:09:00,55.6,48.8,30.13,NNW,338,0.0,0.0,78,0.00,CLR,,0.00,WeatherDisplay:10.37,2013-08-01 09:09:00,
2013-08-01 19:14:00,55.3,48.6,30.13,NNW,337,0.0,0.0,78,0.00,CLR,,0.00,WeatherDisplay:10.37,2013-08-01 09:14:00,
2013-08-01 19:19:00,55.2,48.5,30.13,NNW,334,0.0,0.0,78,0.00,CLR,,0.00,WeatherDisplay:10.37,2013-08-01 09:19:00,
2013-08-01 19:24:00,55.0,48.3,30.13,NW,324,0.0,0.0,78,0.00,CLR,,0.00,WeatherDisplay:10.37,2013-08-01 09:24:00,
2013-08-01 19:29:00,55.0,48.3,30.13,WNW,292,0.0,0.0,78,0.00,CLR,,0.00,WeatherDisplay:10.37,2013-08-01 09:29:00,
2013-08-01 19:34:00,54.8,48.1,30.13,West,272,0.0,0.0,78,0.00,CLR,,0.00,WeatherDisplay:10.37,2013-08-01 09:34:00,
2013-08-01 19:39:00,54.7,48.0,30.13,SSW,203,0.0,0.0,78,0.00,CLR,,0.00,WeatherDisplay:10.37,2013-08-01 09:39:00,
2013-08-01 19:44:00,54.5,47.8,30.13,SSW,202,0.0,0.0,78,0.00,CLR,,0.00,WeatherDisplay:10.37,2013-08-01 09:44:00,
2013-08-01 19:49:00,54.3,47.6,30.13,West,263,0.0,0.0,78,0.00,CLR,,0.00,WeatherDisplay:10.37,2013-08-01 09:49:00,
2013-08-01 19:54:00,54.1,47.4,30.13,West,270,0.0,0.0,78,0.00,CLR,,0.00,WeatherDisplay:10.37,2013-08-01 09:54:00,
2013-08-01 19:59:00,54.0,47.6,30.14,NW,314,0.0,0.0,79,0.00,CLR,,0.00,WeatherDisplay:10.37,2013-08-01 09:59:00,
2013-08-01 20:04:00,53.8,47.4,30.14,NNW,338,0.0,0.0,79,0.00,CLR,,0.00,WeatherDisplay:10.37,2013-08-01 10:04:00,
2013-08-01 20:09:00,53.8,47.4,30.14,NNW,341,0.0,0.0,79,0.00,CLR,,0.00,WeatherDisplay:10.37,2013-08-01 10:09:00,
2013-08-01 20:19:00,53.6,46.9,30.13,NNW,340,0.0,0.0,78,0.00,CLR,,0.00,WeatherDisplay:10.37,2013-08-01 10:19:00,
2013-08-01 20:24:00,53.4,47.1,30.13,NNW,339,0.0,0.0,79,0.00,CLR,,0.00,WeatherDisplay:10.37,2013-08-01 10:24:00,
2013-08-01 20:29:00,53.4,47.1,30.13,NNW,338,0.0,0.0,79,0.00,CLR,,0.00,WeatherDisplay:10.37,2013-08-01 10:29:00,
2013-08-01 20:39:00,53.4,47.1,30.13,NNW,348,0.0,0.0,79,0.00,CLR,,0.00,WeatherDisplay:10.37,2013-08-01 10:39:00,
2013-08-01 20:44:00,53.4,46.7,30.13,NNW,335,0.0,0.0,78,0.00,CLR,,0.00,WeatherDisplay:10.37,2013-08-01 10:44:00,
2013-08-01 20:59:00,52.9,46.5,30.13,NW,307,0.0,0.0,79,0.00,CLR,,0.00,WeatherDisplay:10.37,2013-08-01 10:59:00,
2013-08-01 21:14:00,52.5,46.2,30.13,NW,316,0.0,0.0,79,0.00,CLR,,0.00,WeatherDisplay:10.37,2013-08-01 11:14:00,
2013-08-01 21:19:00,52.5,46.2,30.13,WNW,303,0.0,0.0,79,0.00,CLR,,0.00,WeatherDisplay:10.37,2013-08-01 11:19:00,
2013-08-01 21:24:00,52.3,45.7,30.13,WNW,284,0.0,0.0,78,0.00,CLR,,0.00,WeatherDisplay:10.37,2013-08-01 11:24:00,
2013-08-01 21:29:00,52.3,46.0,30.13,WNW,291,0.0,0.0,79,0.00,CLR,,0.00,WeatherDisplay:10.37,2013-08-01 11:29:00,
2013-08-01 21:34:00,52.3,46.0,30.13,WNW,289,0.0,0.0,79,0.00,CLR,,0.00,WeatherDisplay:10.37,2013-08-01 11:34:00,
2013-08-01 21:39:00,52.0,45.7,30.12,SW,229,0.0,0.0,79,0.00,CLR,,0.00,WeatherDisplay:10.37,2013-08-01 11:39:00,
2013-08-01 21:59:00,51.4,45.1,30.12,NE,43,0.0,0.0,79,0.00,CLR,,0.00,WeatherDisplay:10.37,2013-08-01 11:59:00,
2013-08-01 22:04:00,51.5,45.2,30.12,NE,34,0.0,0.0,79,0.00,CLR,,0.00,WeatherDisplay:10.37,2013-08-01 12:04:00,
2013-08-01 22:19:00,51.1,44.8,30.11,East,98,0.0,0.0,79,0.00,CLR,,0.00,WeatherDisplay:10.37,2013-08-01 12:19:00,
2013-08-01 22:34:00,50.7,44.4,30.11,NNE,12,0.0,0.0,79,0.00,CLR,,0.00,WeatherDisplay:10.37,2013-08-01 12:34:00,
2013-08-01 22:44:00,50.7,44.4,30.11,East,87,0.0,7.0,79,0.00,CLR,,0.00,WeatherDisplay:10.37,2013-08-01 12:44:00,
2013-08-01 22:54:00,50.7,44.4,30.11,East,90,0.0,0.0,79,0.00,CLR,,0.00,WeatherDisplay:10.37,2013-08-01 12:54:00,
2013-08-01 22:59:00,50.7,44.4,30.11,East,90,0.0,0.0,79,0.00,CLR,,0.00,WeatherDisplay:10.37,2013-08-01 12:59:00,
2013-08-01 23:19:00,50.0,43.4,30.10,ESE,112,0.0,7.0,78,0.00,CLR,,0.00,WeatherDisplay:10.37,2013-08-01 13:19:00,
2013-08-01 23:29:00,49.6,43.4,30.10,ESE,112,0.0,0.0,79,0.00,CLR,,0.00,WeatherDisplay:10.37,2013-08-01 13:29:00,
2013-08-01 23:39:00,49.6,43.4,30.10,ESE,109,0.0,0.0,79,0.00,CLR,,0.00,WeatherDisplay:10.37,2013-08-01 13:39:00,
2013-08-01 23:59:00,49.6,43.3,30.09,South,178,0.0,0.0,79,0.00,CLR,,0.00,WeatherDisplay:10.37,2013-08-01 13:59:00,